Location: Cuzcurrita-R�o Tir�n
(42.5415°N, 2.9642°W)
Time: 01:22:07
(UTC+00:00)

Iridium 4 Rocket - Pass Details

Date: 17 January 2021
Orbit: 583 x 906 km, 86.9° (Epoch: 08 March)

Event Time Altitude Azimuth Distance (km) Brightness Sun altitude
Rises 19:09:21 0° 1° (N) 3,519 6.8 -22.3°
Reaches altitude 10° 19:11:56 10° 7° (N) 2,552 6.0 -22.7°
Enters shadow 19:15:43 38° 30° (NNE) 1,303 4.4 -23.4°
Exits shadow 19:23:26 - 162° (SSE) 2,586 6.1 -24.8°
Sets 19:25:09 0° 166° (SSE) 3,243 6.7 -25.1°
